Location: Hylvaty SDH
(49.9612°N, 16.4057°E)
Time: 20:29:05
(UTC+01:00)

Vanguard 1 Rocket - Pass Details

Date: 11 October 2020
Orbit: 656 x 4221 km, 34.3° (Epoch: 30 October)

Event Time Altitude Azimuth Distance (km) Brightness Sun altitude
Rises 17:20:57 0° 243° (WSW) 4,007 13.1 6.9°
Reaches altitude 10° 17:23:27 10° 233° (SW) 3,354 12.1 6.5°
Maximum altitude 17:31:15 36° 171° (S) 2,792 10.1 5.3°
Drops below altitude 10° 17:44:59 10° 113° (ESE) 5,907 11.1 3.2°
Sets 17:51:13 0° 107° (ESE) 7,483 11.5 2.2°
